Regional Weather Roundup
Issued by NWS

Home | Current Version | Previous Version | Graphics & Text | Print | Product List | Glossary On
Versions: 1 2 3 4 5 6 7 8 9 10 11 12 13 14 15 16 17 18 19 20 21 22 23 24 25 26 27 28 29 30 31 32 33 34 35 36 37 38 39 40 41 42 43 44 45 46 47 48 49 50
000
ASUS43 KOAX 291502
RWRNE

WEATHER ROUNDUP FOR NEBRASKA
NATIONAL WEATHER SERVICE OMAHA NE
1000 AM CDT THU SEP 29 2016

NOTES: SATELLITE DATA IS BEING USED TO AUGMENT CLOUD COVER ABOVE
       12000 FEET.
       "FAIR" INDICATES FEW OR NO CLOUDS BELOW 12,000 FEET WITH NO
       SIGNIFICANT WEATHER AND/OR OBSTRUCTIONS TO VISIBILITY.

  * THESE STATIONS DO NOT REPORT WEATHER SUCH AS RAIN...SNOW OR FOG.

NEZ001>004-019>022-054>056-291600-
NEBRASKA PANHANDLE

CITY           SKY/WX    TMP DP  RH WIND       PRES   REMARKS
SCOTTSBLUFF    SUNNY     54  40  59 E14       30.35S
ALLIANCE       SUNNY     54  41  61 S13       30.37R
CHADRON        SUNNY     61  40  45 SE7       30.32S
KIMBALL        SUNNY     57  45  62 S10       30.38S
SIDNEY         SUNNY     60  42  51 S15       30.39R
$$

NEZ057>060-069>072-079>082-291600-
SOUTHWEST NEBRASKA

CITY           SKY/WX    TMP DP  RH WIND       PRES   REMARKS
NORTH PLATTE   SUNNY     51  44  77 SE5       30.44S
IMPERIAL       SUNNY     54  41  61 SE10      30.42R
LEXINGTON      SUNNY     53  45  74 SE3       30.47S
MCCOOK         SUNNY     49  42  77 E5        30.45R
OGALLALA       SUNNY     56  43  61 E5        30.41S
$$

NEZ005>010-023>029-035>040-094-291600-
NORTH CENTRAL NEBRASKA

CITY           SKY/WX    TMP DP  RH WIND       PRES   REMARKS
VALENTINE      SUNNY     56  43  61 S6        30.42R
AINSWORTH      SUNNY     54  47  76 S10       30.44S
BROKEN BOW     SUNNY     51  45  79 SE6       30.46R
O`NEILL        SUNNY     54  47  77 S3        30.48R
ORD            SUNNY     50  43  77 CALM      30.47R
THEDFORD       SUNNY     56  44  64 S9        30.44S
$$

NEZ041-046>049-061>064-073>077-083>087-291600-
SOUTH CENTRAL NEBRASKA

CITY           SKY/WX    TMP DP  RH WIND       PRES   REMARKS
GRAND ISLAND   SUNNY     53  46  77 CALM      30.48R
AURORA         SUNNY     53  50  89 CALM      30.47S
HASTINGS       SUNNY     54  47  77 CALM      30.48R
HEBRON         SUNNY     53  47  80 CALM      30.46S
HOLDREGE       SUNNY     54  46  74 CALM      30.47R
KEARNEY *      SUNNY     52  45  76 CALM      30.46S
YORK           SUNNY     54  50  87 CALM      30.47R
$$

NEZ011>018-030>034-042>045-291600-
NORTHEAST NEBRASKA

CITY           SKY/WX    TMP DP  RH WIND       PRES   REMARKS
NORFOLK        SUNNY     53  47  79 MISG      30.47R
ALBION         SUNNY     51  47  84 CALM      30.48R
BLAIR          SUNNY     54  50  86 N6        30.45R
FREMONT        SUNNY     54  49  86 CALM      30.46S
TEKAMAH        SUNNY     56  49  77 N5        30.46R
WAYNE          SUNNY     53  49  88 CALM      30.48S
$$

NEZ050>053-065>068-078-088>093-291600-
SOUTHEAST NEBRASKA

CITY           SKY/WX    TMP DP  RH WIND       PRES   REMARKS
LINCOLN        SUNNY     56  50  80 N6        30.47R
OMAHA EPPLEY   MOSUNNY   55  49  80 N8        30.45R
BEATRICE       SUNNY     56  51  82 NE5       30.44S
FALLS CITY     SUNNY     58  51  78 N6        30.42R
NEBRASKA CITY  SUNNY     55  49  79 N5        30.44R
PLATTSMOUTH    SUNNY     55  49  78 N3        30.44S
$$

NEZ044-045-051>053-067-291600-
OMAHA AREA

CITY           SKY/WX    TMP DP  RH WIND       PRES   REMARKS
OMAHA EPPLEY   MOSUNNY   55  49  80 N8        30.45R
BLAIR          SUNNY     54  50  86 N6        30.45R
FREMONT        SUNNY     54  49  86 CALM      30.46S
MILLARD        SUNNY     56  49  80 CALM      30.45S
OFFUTT AFB     SUNNY     56  51  84 VRB3      30.43S
PLATTSMOUTH    SUNNY     55  49  78 N3        30.44S
WAHOO          FAIR      55  50  83 CALM      30.46R
$$




USA.gov is the U.S. government's official web portal to all federal, state and local government web resources and services.